www.pogodaiklimat.ru

Погода и климат >> Архив погоды >> Индонезия >> Сарми


ПОГОДА в Сарми

  • Прогноз погоды в Сарми
  • Монитор погоды в Сарми

АРХИВ ПОГОДЫ в Сарми

Время (UTC), дата Ветер
(напр.,м/с)
 
Видим.   Явления Облачность Т
(С)
Тd
(С)
f
(%)
Тe
(С)
Тes
(С)
Комфортность P
(гПа)
Po
(гПа)
Тmin
(С)
Tmax
(С)
R
(мм)
R24
(мм)
S
(см)
06 14.09 В 3 12 км 4/1 450 м
[Cu Sc Ac trans Ci fib]
+30.3 +24.7 72 +43 +50 опасность
перегрева
1008.7 1008.1
09 14.09 В 2 9000 м 5/1 450 м
[Cu med, cong Ac lent Ci]
+28.7 +24.5 78 +41 +41 опасность
перегрева
1010.2 1009.7
12 14.09 ЮВ 2 8000 м 8/4 450 м
[Cu Sc Ac lent Ci]
+27.5 +24.6 84 +39 +39 очень
душно
1012.0 1011.4 +31.5
15 14.09 штиль 0 8000 м 4/1 450 м
[Cu med, cong Ci]
+25.6 +23.3 87 +34 +34 очень
душно
1011.9 1011.4
00 15.09 ЮВ 3 12 км 4/3 450 м
[Cu Sc Ac trans Ci sp]
+29.1 +24.4 76 +41 +48 опасность
перегрева
1013.2 1012.6 +23.2 0.4
03 15.09 В 2 12 км 3/1 450 м
[Cu Sc Ci sp]
+30.8 +24.5 69 +43 +62 опасность
перегрева
1010.7 1010.2
06 15.09 СВ 3 12 км 3/1 450 м
[Cu Sc Ci sp]
+30.7 +25.0 72 +44 +52 опасность
перегрева
1009.0 1008.5
09 15.09 СВ 3 10 км 3/1 450 м
[Cu Sc Ac trans Ci sp]
+29.0 +24.8 78 +41 +41 опасность
перегрева
1010.4 1009.9
12 15.09 В 3 8000 м 5/5 450 м
[Cu Sc Ac trans Ci fib]
+28.6 +24.6 79 +41 +41 опасность
перегрева
1012.3 1011.8 +31.5
00 16.09 ЮВ 3 12 км 4/1 450 м
[Cu Sc Ac trans Ci sp]
+29.6 +23.0 68 +40 +47 очень
душно
1012.9 1012.4 +24.1
03 16.09 СВ 3 12 км 3/1 450 м
[Cu Sc Ci fib]
+30.9 +23.8 66 +42 +58 опасность
перегрева
1010.7 1010.2
06 16.09 СВ 3 12 км 3/1 450 м
[Cu Sc Ci sp]
+30.0 +23.7 69 +41 +49 опасность
перегрева
1009.0 1008.4
12 16.09 штиль 0 8000 м 6/4 450 м
[Cu Sc Ac trans Ci]
+28.5 +24.5 79 +40 +40 очень
душно
1012.0 1011.5 +31.9
15 16.09 штиль 0 8000 м 5/3 450 м
[Cu Sc Ac trans Ci fib]
+25.6 +23.3 87 +34 +34 очень
душно
1011.4 1010.8
00 17.09 ЮВ 5 12 км 4/1 450 м
[Cu Sc Ac trans Ci fib]
+29.7 +23.4 69 +40 +45 очень
душно
1012.8 1012.3 +22.3
03 17.09 В 3 12 км 3/1 450 м
[Cu Sc Ci fib]
+31.5 +24.6 67 +44 +60 опасность
перегрева
1010.6 1010.1
06 17.09 СВ 3 12 км 3/1 450 м
[Cu Sc Ci fib]
+30.8 +24.7 70 +44 +50 опасность
перегрева
1009.2 1008.7
09 17.09 В 2 10 км 4/3 450 м
[Cu Sc Ac trans Ci fib]
+29.3 +24.2 74 +41 +41 опасность
перегрева
1010.8 1010.3
12 17.09 ЮВ 3 8000 м 5/1 450 м
[Cu Sc Ac trans Ci]
+28.4 +25.0 82 +41 +41 опасность
перегрева
1012.5 1012.0 +32.1
15 17.09 штиль 0 8000 м 5/1 450 м
[Cu Sc Ac trans Ci fib]
+26.0 +23.7 87 +35 +35 очень
душно
1012.4 1011.9
00 18.09 ЮВ 3 12 км 5/1 450 м
[Cu Sc Ac trans Ci sp]
+30.0 +25.1 75 +43 +51 опасность
перегрева
1014.1 1013.6 +24.1
03 18.09 В 2 12 км 4/1 450 м
[Cu Sc Ac trans Ci sp]
+30.9 +25.0 71 +44 +61 опасность
перегрева
1011.1 1010.6
06 18.09 СВ 2 12 км 4/3 450 м
[Cu Sc Ac trans Ci fib]
+30.6 +25.9 76 +46 +52 опасность
перегрева
1009.2 1008.6
09 18.09 СВ 3 9000 м 5/3 450 м
[Cu Sc Ac trans Ci]
+29.2 +24.5 76 +41 +41 опасность
перегрева
1010.7 1010.2
12 18.09 В 2 8000 м 5/3 450 м
[Cu Sc Ac trans Ci]
+28.9 +25.1 80 +42 +42 опасность
перегрева
1012.3 1011.8 +31.6
15 18.09 штиль 0 8000 м {дождь} 5/5 450 м
[Cu Sc Ac trans Ci fib]
+27.3 +24.9 87 +39 +39 очень
душно
1012.2 1011.6 5
00 19.09 СВ 2 11 км {дождь} 8/5 450 м
[Cu Sc Ac trans Ci]
+26.3 +24.2 88 +37 +41 очень
душно
1014.4 1013.8 +24.8 0.4
03 19.09 СВ 2 11 км {ливн. осадки} 8/4 450 м
[Cu Sc Ac trans Ci]
+29.0 +23.9 74 +40 +49 очень
душно
1012.5 1011.9 0.2
06 19.09 В 2 12 км 5/1 450 м
[Cu Sc Ac trans Ci]
+29.6 +24.0 72 +41 +48 опасность
перегрева
1009.8 1009.3 0.2
09 19.09 штиль 0 8000 м 5/1 450 м
[Cu Sc Ac trans Ci]
+28.6 +23.5 74 +39 +39 очень
душно
1010.6 1010.0
12 19.09 штиль 0 8000 м 5/1 450 м
[Cu Sc Ac trans Ci fib]
+26.2 +23.9 87 +36 +36 очень
душно
1012.1 1011.7 +30.4
15 19.09 штиль 0 8000 м 5/1 450 м
[Cu Sc Ac trans Ci]
+25.0 +23.4 91 +34 +34 очень
душно
1012.1 1011.5
00 20.09 ЮЗ 2 12 км 5/1 450 м
[Cu Sc Ac trans Ci]
+29.0 +24.1 75 +40 +49 очень
душно
1013.2 1012.7 +24.0 0.2
03 20.09 СВ 2 12 км 5/1 450 м
[Cu Sc Ac trans Ci sp]
+30.5 +23.9 68 +42 +57 опасность
перегрева
1010.9 1010.4
06 20.09 СВ 2 10 км 3/1 450 м
[Cu Sc Ac trans Ci fib]
+30.5 +23.6 67 +42 +49 опасность
перегрева
1008.6 1008.0
09 20.09 штиль 0 8000 м 5/1 450 м
[Cu Sc Ac trans Ci fib]
+29.0 +23.2 71 +39 +39 очень
душно
1008.8 1008.3
12 20.09 штиль 0 8000 м 5/1 450 м
[Cu Sc Ac trans Ci fib]
+26.2 +23.5 85 +36 +36 очень
душно
1011.4 1010.8 +31.1
15 20.09 штиль 0 8000 м 4/1 450 м
[Cu Sc Ac trans Ci fib]
+25.0 +23.1 89 +33 +33 очень
душно
1011.4 1010.8
00 21.09 З 2 11 км 6/1 450 м
[Cu Sc Ac lent Ci]
+29.9 +23.6 69 +41 +49 опасность
перегрева
1012.7 1012.1 +24.1
03 21.09 С 3 12 км 6/1 450 м
[Cu Sc Ac lent Ci]
+31.4 +24.0 65 +43 +55 опасность
перегрева
1010.7 1010.2

 

Местоположение метеостанции Сарми (Индонезия): широта -1.83 долгота 138.71 высота над уровнем моря 3 м.

В архиве по умолчанию представлена погода в Сарми за последнюю неделю. Архивные данные за месяц целиком и за предыдущие месяцы, начиная с января 2011 года, Вы можете получить, выбрав интересующий диапазон дат из раскрывающегося списка и нажав кнопку "Ввод!".


*Определитесь, кто Вы:
робот инопланетянин человек

Внимание! Время в таблицах - всемирное. Для получения местного времени необходимо прибавить поправку, которая равна 9 ч.

Смотрите также архив погоды в соседних городах и на ближайших метеорологических станциях:

Погода в Сентани (Индонезия) (218 км)
Погода в Джаяпуре (Индонезия) (238 км)
Погода в Вамене (Индонезия) (251 км)
Погода в Серуи (Индонезия) (276 км)
Погода в Биаке (Индонезия) (298 км)
Погода в Энаротали (Индонезия) (349 км)
Погода в Коконао (Индонезия) (379 км)
Погода в Набире (Индонезия) (394 км)
Погода в Танах Мерах (Индонезия) (507 км)
Погода в Маноквари (Индонезия) (529 км)

Пояснения к столбцам:

Ветер - указаны скорость ветра в м/с - средняя за 10 мин, порывы в срок и между сроками (в фигурных скобках) и направление, откуда дует ветер: С - северный, СВ - северо-восточный, В - восточный, ЮВ - юго-восточный, Ю - южный, ЮЗ - юго-западный, З - западный, СЗ - северо-западный.
Видимость - горизонтальная дальность видимости в метрах или километрах. При видимости от 1 до 10 км при отсутствии осадков обычно наблюдается дымка, при ухудшении видимости до 1 км и менее - туман. В сухую погоду видимость может ухудшаться дымом, пылью или мглою.
Явления - указаны атмосферные явления, наблюдавшиеся в срок или в последний час перед сроком; фигурными скобками обозначены явления, наблюдавшиеся между сроками (за 1-3 часа до срока); квадратными скобками обозначены град или гололедные отложения с указанием их диаметра в мм.
Облачность - указаны через наклонную черту общая и нижняя облачность в баллах и высота нижней границы облаков в метрах; квадратными скобками обозначены формы облаков: Ci - перистые, Cs - перисто-слоистые, Cc - перисто-кучевые, Ac - высококучевые, As - высокослоистые, Sc - слоисто-кучевые, Ns - слоисто-дождевые, Cu - кучевые, Cb - кучево-дождевые. Подробнее классификацию облаков см. в Атласе облаков (PDF).
T - Температура воздуха - температура, измеренная на высоте 2 м над землей.
Td - Температура точки росы - температура, при понижении до которой содержащийся в воздухе водяной пар достигнет насыщения.
f - Относительная влажность воздуха - влажноcть воздуха, измеренная на высоте 2 м над землей.
Te - Эффективная температура - температура, которую ощущает одетый по сезону человек в тени. Характеристика душности погоды. При расчете учитывается влияние влажности воздуха и скорости ветра на теплоощущения человека.
Tes - Эффективная температура на солнце - температура, которую ощущает человек, с поправкой на солнечный нагрев. Характеристика знойности погоды. Зависит от высоты солнца над горизонтом, облачности и скорости ветра. Ночью, в пасмурную погоду, а также при ветре 12 м/с и более поправка равна нулю.
P - Атмосферное давление - приведенное к уровню моря атмосферное давление.
Po - Атмосферное давление - измеренное на уровне метеостанции атмосферное давление.
Tmin - Минимальная температура - минимум температуры воздуха на высоте 2 м над землей.
Tmax - Максимальная температура - максимум температуры воздуха на высоте 2 м над землей.
R - Количество осадков - Количество выпавших осадков за период времени, мм. При наведении курсора мыши на число - период времени, за который выпало указанное количество осадков.
R24 - Количество осадков - Количество выпавших осадков за 24 часа, мм.
S - Снежный покров - Высота снежного покрова, см. При наведении курсора мыши на число - состояние снежного покрова и степень покрытия местности в баллах.